{"data":{"norad_id":31118,"epoch":"2026-09-19T07:17:52.542240Z","epoch_age_seconds":118002,"freshness":"FRESH","line1":"1 31118U 07012B   26262.30408035  .00000171  00000+0  35744-4 0  9990","line2":"2 31118  98.1552 212.8081 0013354 290.3885  69.5887 14.71472227 41587","mean_motion":14.71472227,"eccentricity":0.0013354,"inclination_deg":98.1552,"raan_deg":212.8081,"arg_perigee_deg":290.3885,"mean_anomaly_deg":69.5887,"bstar":3.5744e-5,"rev_number":4158,"period_min":97.861174242876,"perigee_km":646.97820353895,"apogee_km":665.76597040844,"semimajor_km":7034.5090869737,"source":"CELESTRAK","updated_at":"2026-09-20T09:00:47.584426Z"}}